Probability
4 6 11 16 18 20 21 20 19 17 16 13 10 8 7 7 7 7 6 6 7 6 6 5 4 4 3 4 5 5 5 5 4 3 2 2 3 3 3 3 3 3 3
4 6 9 13 17 19 20 20 18 17 15 13 10 8 7 7 8 8 7 7 7 6 5 4 4 3 3 4 4 4 4 4 3 2 2 3 3 3 3 3 3 3 3
5 6 8 11 15 17 17 17 17 17 15 11 9 8 7 7 8 8 7 6 5 4 2 2 3 3 3 2 2 2 3 3 2 1 1 2 3 3 3 3 3 3 3
6 6 7 10 13 14 14 13 15 16 15 10 7 6 6 7 7 6 5 3 2 2 1 1 1 2 2 1 0 1 1 2 1 0 0 1 3 3 3 3 3 3 3
6 6 8 10 11 11 11 12 13 15 13 9 5 4 5 5 5 4 3 1 1 2 2 2 1 1 1 0 0 0 0 0 0 0 0 1 2 3 3 3 3 3 4
5 7 8 9 8 7 8 10 12 12 11 8 4 3 3 2 2 1 1 1 1 3 3 2 2 1 0 0 0 0 0 0 0 0 0 0 1 2 3 2 3 4 4
5 7 7 6 5 5 6 8 9 10 10 7 3 2 1 0 0 0 0 0 1 3 4 3 3 2 1 0 0 0 0 0 0 1 0 0 0 2 2 2 3 4 5
5 6 6 5 5 5 5 6 6 7 8 6 3 1 0 0 0 0 0 0 1 3 4 3 3 2 1 0 0 0 0 0 0 0 0 0 0 1 2 3 3 4 5
5 5 4 4 5 6 6 5 5 5 6 5 2 1 1 1 0 0 0 0 1 2 3 3 3 2 1 0 0 0 0 0 0 0 0 0 0 1 1 3 3 4 4
4 3 3 2 4 6 7 6 4 4 4 3 2 2 2 2 0 0 0 0 1 2 3 3 3 2 1 0 0 0 0 0 0 0 0 0 1 1 2 3 4 4 4
2 2 2 2 3 6 8 7 6 4 4 3 3 3 3 2 0 0 0 0 0 1 2 2 2 1 0 0 0 0 0 0 0 0 0 1 2 3 3 4 5 5 5
2 2 2 2 2 4 7 8 7 7 6 5 4 4 4 2 0 0 0 0 0 0 1 1 1 0 0 0 0 0 0 0 0 0 0 1 2 3 4 5 6 7 6
3 3 3 2 2 3 6 7 8 9 7 6 5 5 5 4 2 1 0 0 0 0 0 0 0 0 0 0 0 0 0 0 0 1 0 0 1 2 3 4 6 8 7
3 3 3 3 3 3 4 5 6 6 6 5 4 4 4 5 4 3 1 0 0 0 0 0 0 0 0 0 0 0 0 0 0 0 0 0 1 1 2 2 5 6 6
2 2 3 3 3 3 4 4 3 3 3 3 3 2 3 3 4 3 2 1 0 0 0 1 1 1 0 0 0 0 0 0 0 0 0 0 0 0 1 2 3 4 4
1 1 1 2 2 2 3 3 2 1 1 1 1 1 1 1 1 1 1 0 0 0 1 2 2 1 0 0 0 0 0 0 0 0 0 0 0 0 1 2 3 3 3
0 0 0 1 1 1 2 2 1 0 0 0 0 0 0 0 0 0 0 0 0 0 1 2 2 1 0 0 0 0 1 1 2 1 0 0 0 0 0 1 2 3 4
0 0 0 0 0 0 1 1 1 0 0 0 0 0 0 0 0 0 0 0 0 0 0 1 1 0 0 0 0 1 2 2 2 1 0 0 0 0 0 1 1 2 3
0 0 0 0 0 0 0 0 0 0 0 0 0 0 0 0 0 0 0 0 0 0 0 0 0 0 0 0 0 1 2 1 1 1 0 0 0 0 0 1 1 1 1
1 0 0 0 0 0 0 0 0 0 0 0 0 0 0 0 0 0 0 0 0 0 0 0 0 0 0 0 0 1 2 1 0 0 0 0 0 0 0 0 0 0 0
2 1 0 0 0 0 0 0 0 0 0 0 0 0 0 1 1 1 1 0 0 0 0 0 0 0 0 0 0 1 1 0 0 0 0 0 0 0 0 0 0 0 0
3 2 1 0 0 0 0 0 0 0 0 0 0 0 0 1 1 2 1 0 0 0 0 0 0 0 0 0 0 0 0 0 0 0 0 0 0 0 0 0 0 0 0
3 2 1 0 0 0 0 0 0 0 0 0 0 0 0 0 1 1 1 1 0 0 0 0 0 0 0 0 0 0 0 0 0 0 0 0 0 0 0 0 0 0 0
2 2 2 1 0 0 0 0 0 0 0 0 0 0 0 0 0 0 0 1 1 1 0 0 0 0 0 0 0 0 0 0 0 0 0 0 0 0 0 0 0 0 0
2 3 3 2 1 0 0 0 0 0 0 0 0 0 0 0 0 0 0 0 0 0 0 0 0 0 0 0 0 0 0 0 0 0 0 0 0 0 0 0 0 0 0
3 3 3 3 2 1 0 0 0 0 0 0 0 0 0 0 0 0 0 0 0 0 0 0 0 0 0 0 0 0 0 0 0 0 0 0 0 0 0 0 0 0 0
Wind_Speed
4 4 4 4 3 3 3 3 3 3 4 5 5 5 6 6 6 6 6 6 7 6 6 6 6 5 4 4 4 4 4 4 4 3 3 2 3 5 3 4 5 6 5
4 4 4 3 3 3 3 3 3 3 4 5 5 5 5 5 5 6 6 7 7 7 6 6 6 5 5 5 4 4 4 4 5 5 3 3 4 4 4 5 5 5 4
4 4 4 3 3 3 3 3 3 3 3 4 4 4 4 5 5 5 6 6 6 6 6 7 7 6 6 5 5 5 4 4 4 5 4 3 4 4 4 5 6 4 5
4 4 4 4 3 3 3 2 3 3 3 4 4 4 4 4 5 5 5 5 6 6 6 6 7 7 7 6 6 6 5 5 5 5 4 4 4 4 4 5 4 4 5
4 4 4 4 3 3 3 3 3 3 3 3 3 4 4 4 4 4 5 5 6 6 6 6 7 6 6 6 5 5 6 5 5 5 5 5 4 4 5 4 4 4 4
4 4 4 4 4 3 3 3 3 3 3 3 3 3 4 3 2 2 4 5 5 6 6 6 6 7 6 7 7 6 7 7 7 6 5 5 5 5 4 5 5 5 4
3 3 4 4 3 3 3 3 3 3 3 3 3 3 4 2 3 3 4 5 6 5 6 6 6 5 7 7 8 8 9 9 9 8 7 7 6 5 5 6 5 5 5
4 3 4 4 4 3 3 2 3 2 3 3 3 4 3 2 3 4 5 6 6 6 6 6 7 6 6 6 7 7 8 8 9 9 8 8 7 5 5 6 6 6 6
3 3 4 4 3 3 3 3 2 2 3 3 3 3 3 2 3 5 5 5 5 6 6 6 6 6 5 6 7 7 7 6 7 7 6 6 4 5 5 6 6 6 6
1 2 2 3 3 3 2 2 2 2 3 3 2 3 3 3 3 5 6 5 4 4 4 4 5 5 4 6 7 7 7 6 5 6 7 8 9 9 10 9 8 7 6
1 1 1 2 3 3 2 2 3 3 3 3 3 3 3 3 3 4 6 5 4 4 4 4 3 5 5 6 7 7 6 5 6 6 7 8 8 7 8 8 8 7 7
0 1 1 1 2 2 2 2 3 3 3 3 3 4 3 2 2 3 4 5 5 5 4 4 2 4 5 6 6 5 5 6 6 6 6 6 6 6 6 6 7 7 6
0 0 0 1 1 1 2 3 3 3 3 3 3 3 2 1 2 4 5 5 5 5 3 1 1 4 5 6 8 7 7 7 6 6 6 6 5 5 4 4 6 6 6
0 0 0 1 1 1 2 3 2 2 3 3 3 3 2 2 2 1 2 3 4 4 3 2 4 5 6 5 5 7 7 6 6 6 6 5 5 5 5 5 5 5 5
1 1 1 1 1 1 2 2 3 2 2 3 3 3 3 3 2 3 3 2 2 1 2 3 3 3 4 4 5 5 5 6 6 6 5 5 5 5 5 5 5 5 5
1 1 2 2 2 2 2 2 1 2 1 2 3 4 3 1 1 2 2 3 2 2 3 3 3 4 4 4 5 5 5 5 5 5 5 5 5 5 5 5 5 6 6
2 2 2 2 2 3 3 3 2 1 2 2 3 3 4 2 2 2 3 3 3 4 4 4 3 4 4 4 4 5 4 4 4 5 5 5 5 5 5 5 5 6 6
2 2 2 2 3 3 3 3 3 3 2 2 2 3 3 3 4 4 3 3 3 5 4 4 4 4 4 4 5 4 4 4 5 5 5 5 5 5 6 6 5 6 5
2 2 2 2 3 3 3 3 3 4 3 3 2 1 2 3 4 5 5 4 3 3 3 3 4 4 4 4 5 4 5 5 5 5 5 5 5 6 6 6 5 5 6
1 1 2 2 3 3 3 3 3 3 3 3 3 2 1 2 2 2 3 4 4 4 4 4 3 4 4 5 5 5 5 5 5 6 6 5 6 6 6 6 6 6 6
2 1 2 3 2 2 3 3 3 3 3 3 3 2 3 4 3 3 3 3 4 4 4 4 4 4 4 4 5 5 6 5 5 5 5 5 6 6 6 6 6 6 6
2 2 2 2 2 2 3 3 3 3 3 4 3 2 3 4 3 4 3 3 3 3 4 4 4 4 4 4 5 5 5 5 5 5 5 5 5 6 6 6 6 6 5
3 2 2 2 2 2 3 3 3 3 4 4 4 3 3 3 4 4 4 4 4 3 4 4 5 4 4 3 4 5 5 5 5 5 5 5 5 6 6 6 7 7 6
3 3 3 2 3 3 3 3 3 3 4 4 4 3 3 3 4 4 4 4 4 4 4 4 5 5 6 5 4 5 5 4 5 5 6 6 6 6 6 6 7 7 7
3 3 3 2 3 3 3 3 4 4 3 4 4 4 4 4 4 4 4 4 5 4 5 5 4 5 6 7 6 5 3 2 4 5 6 6 7 6 6 7 6 6 6
3 3 2 2 3 3 4 4 4 4 4 3 4 4 4 4 4 4 4 4 4 4 4 4 5 5 6 5 5 4 2 2 3 4 6 6 6 6 6 6 7 6 6
Wind_Direction
185 188 190 190 193 200 208 205 207 203 192 199 204 204 205 208 212 214 219 209 211 212 213 214 217 227 227 225 225 228 233 233 244 250 239 216 230 252 237 244 238 233 211
180 179 180 181 184 195 194 197 198 199 202 202 209 212 213 213 216 218 219 215 212 213 214 214 216 211 218 232 231 230 229 238 243 243 245 233 230 237 238 247 247 241 237
175 168 165 170 177 186 191 193 194 196 202 206 211 218 220 217 218 222 221 220 219 217 216 218 218 215 220 221 227 229 227 226 236 240 242 245 241 236 237 241 248 252 247
172 170 171 175 180 188 196 199 206 205 207 211 216 224 222 217 215 217 220 223 225 221 217 221 222 220 221 222 224 228 234 234 228 239 240 235 234 229 238 240 239 232 246
181 181 179 174 179 186 191 201 213 217 215 214 218 228 226 221 217 214 217 221 226 227 223 225 226 226 230 229 235 226 223 228 228 231 235 236 233 229 237 242 247 244 237
192 189 183 180 183 185 190 198 209 214 222 225 225 228 231 230 182 218 241 229 226 228 226 227 225 216 212 215 232 240 243 235 235 238 240 239 242 241 247 250 250 249 244
192 189 184 185 189 193 197 198 205 213 222 239 244 238 242 233 174 194 229 243 237 234 230 230 233 220 211 217 211 220 235 246 249 252 251 252 249 247 253 251 252 259 267
187 186 185 191 190 193 202 206 214 222 228 238 251 248 247 231 179 198 220 235 241 239 237 234 234 229 218 219 219 218 222 224 226 230 240 249 251 253 247 252 258 255 252
179 190 191 196 197 202 205 208 221 232 240 242 244 253 248 233 183 201 224 239 237 242 242 240 234 228 208 210 223 226 227 225 220 231 247 254 267 258 257 255 247 248 250
183 196 186 193 200 209 215 220 227 234 239 246 239 251 256 257 187 203 223 238 236 241 243 242 229 229 206 203 224 228 230 230 231 213 221 230 232 230 226 237 250 252 254
183 179 182 197 210 211 220 229 236 239 242 250 251 247 249 253 204 200 219 243 242 243 245 240 224 183 200 214 235 237 238 243 234 234 233 230 225 224 219 221 235 252 260
186 167 184 224 239 214 222 236 244 249 239 238 245 250 244 221 206 186 203 239 270 255 253 251 217 175 206 225 234 234 233 239 240 238 240 240 235 230 225 221 223 238 252
154 207 256 262 259 252 244 240 240 239 252 252 250 257 264 245 177 178 197 224 243 255 271 286 232 207 217 223 227 227 225 231 236 238 241 242 242 235 225 215 218 222 234
331 299 255 245 257 257 265 265 268 270 272 271 271 276 275 260 254 225 219 219 215 231 256 234 207 211 229 239 221 217 225 236 240 241 242 242 241 226 219 224 224 216 227
337 315 295 278 286 282 279 299 289 307 314 292 295 289 285 283 345 2 318 291 288 288 264 246 238 224 225 227 230 227 223 224 225 231 237 238 237 233 229 222 224 234 242
329 310 302 300 297 284 286 289 339 276 222 232 266 283 284 289 20 324 310 305 295 258 248 241 240 238 239 237 233 231 226 227 229 228 229 231 232 233 231 226 224 232 241
315 310 300 303 300 293 292 287 287 270 206 220 228 235 244 255 254 258 264 261 241 221 237 244 245 246 248 250 246 240 236 232 233 233 230 230 230 231 232 231 231 234 240
288 294 285 289 290 292 290 285 282 284 282 280 221 200 208 223 235 243 238 231 224 224 241 244 245 248 252 256 256 253 248 238 228 231 233 234 233 235 236 234 233 239 245
283 286 291 299 292 292 293 294 296 296 297 303 305 212 206 220 220 225 219 244 252 247 245 246 248 252 257 259 258 254 253 249 239 236 235 237 238 238 240 241 239 234 245
281 316 283 284 291 298 298 302 304 303 303 302 301 315 305 257 243 219 233 256 261 261 259 251 251 255 259 265 265 256 250 244 234 235 233 232 236 240 240 242 244 244 240
282 268 257 275 287 297 301 303 301 296 296 296 297 320 310 285 278 269 255 251 259 264 265 262 257 255 254 256 261 262 259 253 246 243 240 235 235 237 240 242 242 245 245
279 273 268 281 290 300 301 297 296 289 283 285 286 266 249 261 273 279 278 271 265 265 268 268 268 268 263 257 257 256 257 255 252 249 249 247 243 240 241 242 241 244 246
281 283 280 280 282 273 272 281 284 285 282 284 286 285 271 274 276 277 278 281 279 273 268 263 265 269 272 268 264 264 260 260 258 251 249 249 247 243 240 242 243 244 243
280 281 283 281 280 281 281 285 291 292 288 285 283 281 282 284 284 286 285 285 282 274 267 264 265 272 275 273 265 261 264 271 272 257 247 249 248 249 244 241 242 239 242
278 283 289 293 294 292 289 289 291 291 292 295 295 294 289 283 282 284 283 282 282 283 283 279 275 274 272 272 278 284 298 283 267 275 258 251 249 249 252 249 246 244 243
279 282 284 292 293 292 291 290 293 299 299 299 298 299 300 296 290 287 287 291 292 288 289 286 291 292 287 277 284 295 296 269 256 263 266 256 252 252 252 249 247 244 241